Weather in Serebryanyy Bor

Russia / Sakha (Yakutia) Republic     56°40′31″N   124°50′15″E
temp.,
°C
wind,
m/s
gust,
m/s
humid.,
%
clouds,
%
prec.,
mm/h
press.,
hPa
HPBL,
m
16 april, fri
fri1600:00−12sw2295100 0.0 101617
03:00−16ssw119674 0.0 101911
06:00−17ssw219598 0.0 102123
09:00−5se10845 0.0 1017205
12:00−2sse23785 0.0 1014820
15:000s46689 0.2 10121319
18:00−1ssw597034 0.1 1011965
21:00−8s35846 0.1 101364
17 april, sat
sat1700:00−10sse388914 0.0 1012113
03:00−8sse4975100 0.0 1009157
06:00−9se388189 0.0 1008147
09:00−3sse513767 0.0 1005435
12:00+1sse6118333 0.0 1003821
15:00+2s61284100 0.0 10021015
18:00+3s6147621 0.0 10021024
21:00+1s51277100 0.0 1003332
18 april, sun
sun1800:00−6ssw1194100 0.0 100616
03:00−5nw1298100 0.2 100861
06:00−3nnw2797100 0.8 1010455
09:00−5n5890100 1.8 1014761
12:00−5n5889100 1.2 1015953
15:00−5nne5888100 2.2 10161086
18:00−7nnw51093100 1.8 1018863
21:00−9n41093100 3.1 1020968
19 april, mon
mon1900:00−10nnw51192100 0.7 10211004
03:00−10nnw61181100 0.9 10211064
06:00−12nnw51181100 0.0 1023980
09:00−10nnw61073100 0.1 10231397
12:00−9nnw6968100 0.1 10221839
15:00−8nnw6972100 0.3 10212087
18:00−8nnw51077100 0.3 10221636
21:00−16wnw219550 0.4 102511
20 april, tue
tue2000:00−20w11999 0.0 10279
03:00−22sw119921 0.0 10289
06:00−23s1110020 0.0 102712
09:00−11se2482100 0.0 1018341
12:00−8sse3489100 0.5 1015560
15:00−4sse2387100 0.9 1013691
18:00−3nnw128899 0.5 1014425
21:00−11sw119728 0.6 10199